Weather in Bern

Switzerland     46°56′56″N   7°26′27″E
temp.,
°C
wind,
m/s
gust,
m/s
humid.,
%
clouds,
%
prec.,
mm/h
press.,
hPa
HPBL,
m
29 november, mon
mon2901:00−1sw1498100 1.3 1003165
04:00−2wsw1299100 0.3 100551
07:00−2sw1198100 0.5 100836
10:00−1w1294100 0.3 1010253
13:00+1wnw237871 1.1 1012740
16:00−1nw118870 0.4 101430
19:00−3ssw1293100 0.5 101992
22:00−4ssw239546 0.0 102142
30 november, tue
tue3001:00−5s2392100 0.0 102372
04:00−6s239185 0.0 102543
07:00−5s248792 0.0 102584
10:00−1sw3875100 0.0 1025419
13:00+2wsw41169100 0.0 1022576
16:00+2wsw31075100 0.0 1022566
19:00+1sw31092100 0.6 1023459
22:00+1sw398999 0.1 1022300
1 december, wed
wed101:000ssw2590100 0.1 1020164
04:00+1s258893 0.0 1016176
07:00+1ssw298666 0.0 1014333
10:00+3ssw288171 0.0 1010276
13:00+6wsw41278100 0.0 1005883
16:00+5sw31094100 0.5 1003674
19:00+5wsw81594100 2.8 10041160
22:00+4wsw61294100 1.1 1005971
2 december, thu
thu201:00+3sw51194100 1.5 1004803
04:00+3sw3998100 1.7 1003585
07:00+2sw2799100 2.2 1004488
10:00+2wsw3797100 0.6 1005520
13:00+3wsw3692100 1.1 1005597
16:00+1wnw1498100 1.4 1006286
19:000wnw1298100 1.9 100966
22:00−2w119866 0.3 101210
3 december, fri
fri301:00−4s119714 0.3 101314
04:00−5s119713 0.0 101625
07:00−6s229513 0.0 101632
10:00−3ssw1383100 0.0 1016190
13:00+1wsw3672100 0.0 1013760
16:000sw2684100 0.0 1010395
19:000sw31298100 2.2 1011798
22:00+2wsw61196100 1.8 10131008